Zurück zum Katalog

STARLINK-38156

AktivKommunikationSSO
NORAD 100371·PAYLOAD·🇺🇸 United States

Gestartet Aug 19, 2026 von Vandenberg Space Force Base

Loading…

Nächste Überflüge (nächste 24 Stunden)

TLE

AktuellSource: Space-Track

Epoche: Sep 14, 2026, 13:49 UTC

1 A0371U 26190A   26257.57584394  .00097961  00000-0  64930-3 0  9993
2 A0371  97.2837 111.6508 0001660  79.6933 280.4519 15.75219186  5415

Verfolge STARLINK-38156 in Echtzeit mit AllMySat

Download on the App Store